Вернуться в каталог

PRSC-EO1

АктивенНаукаSSO
NORAD 62726·PAYLOAD·🇨🇳 China
Это название спутника еще не подтверждено официальными источниками.

Запущен Jan 17, 2025 с Jiuquan Satellite Launch Center

Loading…

Ближайшие Пролёты (ближайшие 24 часа)

TLE

СвежийSource: Space-Track

Эпоха: Sep 14, 2026, 04:16 UTC

1 62726U 25012B   26257.17790806  .00003394  00000-0  15205-3 0  9998
2 62726  97.4159 328.9972 0007911 334.0827  26.0011 15.21902957 91781

Отслеживайте PRSC-EO1 в реальном времени с AllMySat

Download on the App Store